Location: Darlington Observatory
(36.4817°N, 105.8156°W)
Time: 20:12:21
(UTC-06:00)

MOS 1 - Visible Passes

Search period start: 29 August 2014 00:00
Search period end: 08 September 2014 00:00
Orbit: 880 x 891 km, 99.2° (Epoch: 29 August)

Date Brightness Start Highest point End Pass type
(mag) Time Alt. Az. Time Alt. Az. Time Alt. Az.
29 Aug 5.9 05:01:34 10° NE 05:06:39 33° E 05:11:41 10° SSE visible
30 Aug 6.0 05:00:04 10° NE 05:05:06 32° E 05:10:04 10° SSE visible
31 Aug 6.1 04:58:33 10° NE 05:03:32 31° E 05:08:27 10° SSE visible
01 Sep 6.1 04:57:03 10° NE 05:01:58 30° E 05:06:50 10° SSE visible
02 Sep 6.2 04:55:33 10° NE 05:00:24 29° E 05:05:13 10° SSE visible
03 Sep 6.2 04:54:02 10° NE 04:58:50 28° E 05:03:36 10° SSE visible
04 Sep 6.3 04:52:32 10° NE 04:57:16 27° E 05:01:58 10° SSE visible
05 Sep 6.3 04:51:03 10° NE 04:55:43 26° E 05:00:20 10° SSE visible
06 Sep 6.4 04:49:33 10° NE 04:54:09 25° E 04:58:42 10° SSE visible
07 Sep 6.4 04:48:04 10° NE 04:52:35 24° E 04:57:04 10° SSE visible
